Location: Bucharest
(44.4268°N, 26.1025°E)
Time: 04:34:16
(UTC+03:00)

Oscar 19 - Visible Passes

Search period start: 30 June 2022 00:00
Search period end: 10 July 2022 00:00
Orbit: 772 x 790 km, 98.8° (Epoch: 29 June)

Date Brightness Start Highest point End Pass type
(mag) Time Alt. Az. Time Alt. Az. Time Alt. Az.
30 Jun 12.4 03:59:21 10° NE 04:03:42 27° E 04:08:00 10° SSE visible
01 Jul 13.1 03:28:42 10° ENE 03:31:20 14° E 03:33:56 10° ESE visible
02 Jul 11.3 04:34:05 10° NNE 04:39:08 56° E 04:44:08 10° S visible
03 Jul 12.3 04:02:30 10° NE 04:06:56 29° E 04:11:20 10° SSE visible
04 Jul 13.1 03:31:44 10° NE 03:34:35 15° E 03:37:26 10° SE visible
05 Jul 11.2 04:37:17 10° NNE 04:42:21 59° E 04:47:24 10° S visible
06 Jul 12.2 04:05:40 10° NE 04:10:11 30° E 04:14:40 10° SSE visible
07 Jul 13.1 03:34:46 10° NE 03:37:50 16° E 03:40:54 10° SE visible
08 Jul 11.1 04:40:29 10° NNE 04:45:35 63° ESE 04:50:40 10° S visible
09 Jul 12.2 04:08:50 10° NNE 04:13:25 32° E 04:17:59 10° SSE visible
